This is the latest recevied weather packets stored in our database for station/object K4KMJ. If no packets are shown the sender has not sent any weather packets the latest 10 day(s).
| Time | Temp. | Humidity | Pressure | Rain* | Wind** | Luminosity | Snow |
|---|---|---|---|---|---|---|---|
| 1777673084 | 31.67° C | 53% | 1010.7 hPa | 0 mm | - | 112 W/m² | - |
| 1777672779 | 31.67° C | 53% | 1010.6 hPa | 0 mm | - | 115 W/m² | - |
| 1777672477 | 31.67° C | 52% | 1010.7 hPa | 0 mm | - | 125 W/m² | - |
| 1777672172 | 32.22° C | 50% | 1010.7 hPa | 0 mm | - | 131 W/m² | - |
| 1777671868 | 32.22° C | 50% | 1010.6 hPa | 0 mm | - | 122 W/m² | - |
| 1777671563 | 32.22° C | 50% | 1010.6 hPa | 0 mm | - | 111 W/m² | - |
| 1777671261 | 32.22° C | 48% | 1010.4 hPa | 0 mm | - | 112 W/m² | - |
| 1777670955 | 33.33° C | 47% | 1010.5 hPa | 0 mm | - | 153 W/m² | - |
| 1777670653 | 33.33° C | 46% | 1010.5 hPa | 0 mm | - | 381 W/m² | - |
| 1777670349 | 33.89° C | 47% | 1010.7 hPa | 0 mm | - | 316 W/m² | - |
| 1777670047 | 32.78° C | 47% | 1010.7 hPa | 0 mm | - | 271 W/m² | - |
| 1777669744 | 33.33° C | 47% | 1010.7 hPa | 0 mm | - | 292 W/m² | - |
| 1777669441 | 32.78° C | 48% | 1010.7 hPa | 0 mm | - | 228 W/m² | - |
| 1777669137 | 32.22° C | 48% | 1011.2 hPa | 0 mm | - | 173 W/m² | - |
| 1777668834 | 32.78° C | 48% | 1011 hPa | 0 mm | - | 145 W/m² | - |
| 1777668531 | 32.78° C | 50% | 1010.8 hPa | 0 mm | - | 350 W/m² | - |
| 1777668227 | 32.22° C | 49% | 1010.8 hPa | 0 mm | - | 400 W/m² | - |
| 1777667923 | 32.22° C | 50% | 1011 hPa | 0 mm | - | 213 W/m² | - |
| 1777667621 | 31.67° C | 51% | 1011 hPa | 0 mm | - | 170 W/m² | - |
| 1777667318 | 31.11° C | 52% | 1010.9 hPa | 0 mm | - | 159 W/m² | - |
| 1777667015 | 31.67° C | 51% | 1010.9 hPa | 0 mm | - | 142 W/m² | - |
| 1777666712 | 31.67° C | 50% | 1010.9 hPa | 0 mm | - | 159 W/m² | - |
| 1777666408 | 32.22° C | 50% | 1010.9 hPa | 0 mm | - | 187 W/m² | - |
| 1777666105 | 33.33° C | 49% | 1011 hPa | 0 mm | - | 275 W/m² | - |
| 1777665802 | 33.33° C | 48% | 1011.4 hPa | 0 mm | - | 274 W/m² | - |
* Rain latest hour (hover to see other rain measurements)
** Current wind speed in m/s (hover to see current wind gust speed)